Dewpoint
40 31 26 23 21 18 17 17 14 18 24 23 26 25 36 43 49 52 52 51 51 52 53 56 56 58 60 61 60 61 61 60 59 58 56 56 56 56 56 55 55 55 54 54
34 26 25 22 19 16 14 16 12 19 24 21 27 25 36 39 46 50 52 52 52 52 53 54 56 57 59 60 60 60 61 61 60 59 58 58 58 57 56 56 55 55 55 55
28 26 25 22 20 16 13 12 13 18 22 20 25 23 31 37 39 47 51 52 53 53 53 52 54 57 57 59 60 59 59 60 61 61 59 59 58 57 57 56 56 56 56 56
28 29 23 22 21 19 9 11 19 20 19 14 19 12 30 36 37 41 47 50 51 51 51 51 52 56 57 58 59 60 59 59 60 61 59 58 57 55 56 56 55 56 56 56
33 28 24 24 23 20 14 18 20 18 13 11 15 10 23 36 36 37 43 48 49 49 49 50 51 55 57 58 59 59 60 59 59 60 58 58 56 55 56 56 54 53 57 56
34 30 26 26 25 23 20 20 19 20 15 6 9 12 16 35 36 38 40 46 48 49 49 50 52 53 55 57 58 59 59 59 60 59 58 57 56 55 55 55 54 53 56 55
30 30 30 26 24 25 20 15 10 8 6 4 12 8 10 31 37 38 39 45 48 49 50 50 51 52 54 56 57 58 59 59 59 58 58 57 56 55 55 55 55 54 55 55
30 27 28 26 24 23 19 15 7 1 7 7 12 8 8 12 24 37 39 42 48 49 50 51 51 52 54 55 56 56 57 57 57 58 57 57 56 55 55 55 55 55 55 55
31 31 33 24 25 23 18 12 17 12 9 4 8 11 10 12 12 23 38 41 45 49 50 50 52 52 53 55 56 56 55 56 56 57 57 57 56 55 54 56 56 56 56 56
33 29 33 25 23 22 20 16 9 16 1 -2 8 2 2 6 9 15 31 39 42 46 50 51 51 53 53 54 55 57 57 57 56 57 57 56 56 56 55 56 56 56 56 56
33 31 30 24 22 19 19 17 20 17 18 8 6 9 23 24 22 13 18 26 34 41 45 47 51 53 54 55 55 57 58 58 57 56 57 57 56 56 56 56 56 56 55 55
33 32 27 24 27 29 22 19 20 11 13 19 17 20 27 28 28 32 32 31 31 33 35 36 37 43 51 55 56 57 58 59 58 57 56 57 57 57 56 56 56 56 55 55
31 32 27 27 27 27 26 21 18 18 19 14 13 20 26 25 25 25 25 25 25 26 26 28 30 32 35 38 42 53 58 59 59 59 57 57 57 57 57 56 56 55 55 55
34 33 30 23 25 25 24 24 21 17 15 14 18 22 24 22 22 24 24 24 24 24 24 25 25 27 28 30 31 36 42 52 58 59 58 57 57 57 57 57 56 55 55 54
29 29 31 32 32 27 24 24 21 19 17 14 20 22 21 19 20 22 22 22 22 22 23 23 24 25 26 28 29 32 36 41 45 57 58 59 58 58 57 56 56 55 55 55
25 28 29 29 31 27 23 21 24 22 20 20 21 20 17 17 19 20 19 19 19 19 21 23 23 24 25 26 28 31 35 39 42 46 54 56 57 59 58 57 56 56 55 55
22 23 27 27 32 28 22 18 19 20 15 17 20 17 15 16 16 18 17 17 17 17 18 20 22 23 24 25 28 33 37 39 41 44 48 51 52 54 55 57 57 56 55 54
22 23 26 26 30 23 19 18 17 15 13 13 13 12 12 12 13 15 13 12 13 14 17 18 21 23 24 25 27 29 34 37 40 43 46 48 48 49 52 53 54 53 51 51
26 24 22 24 21 19 21 17 18 18 17 13 12 11 11 10 16 12 11 10 11 12 15 17 19 22 23 23 24 27 32 36 38 40 45 45 45 46 47 48 49 47 46 44
22 27 22 23 21 17 17 17 18 20 22 11 8 8 7 10 18 17 10 9 9 11 13 15 19 21 22 23 24 27 30 33 35 37 40 44 43 44 45 45 44 43 43 42
14 14 20 20 18 16 17 15 21 20 18 7 6 6 6 7 9 8 7 7 8 10 12 15 17 19 21 22 25 25 27 30 32 35 38 43 42 42 43 42 41 40 40 38
12 13 17 16 18 17 17 14 18 15 7 5 5 6 6 6 6 6 6 7 8 9 10 13 16 17 20 22 24 23 24 27 29 32 37 41 41 41 40 40 39 39 38 37
8 12 12 15 16 14 8 10 10 8 6 5 6 6 6 6 6 6 7 8 8 8 10 12 14 16 19 22 21 22 23 25 27 30 36 39 39 39 39 38 37 36 37 36
12 7 7 8 11 11 10 11 8 7 6 6 7 6 6 6 6 7 7 7 7 9 10 11 13 16 17 19 21 21 21 23 25 28 33 36 37 37 37 37 37 36 35 35
11 9 7 8 10 12 13 11 8 7 7 7 7 6 6 7 7 7 7 7 8 9 10 12 13 13 16 19 19 20 21 23 24 26 30 33 34 34 34 35 35 35 36 35
9 9 6 0 8 8 11 11 8 7 7 6 6 6 8 7 7 7 8 8 9 10 12 11 12 13 15 17 19 20 21 22 23 24 28 31 32 32 32 32 32 35 35 36
Wind_Speed
15 30 29 20 22 15 20 17 16 10 12 12 17 9 21 24 22 23 23 25 27 27 25 24 25 22 20 21 20 24 21 19 18 14 15 15 15 10 9 13 16 14 10 7
20 27 17 21 19 19 22 21 11 13 19 9 14 17 20 18 25 31 30 27 26 26 27 24 27 26 26 25 24 20 19 17 16 16 13 9 14 8 9 10 16 17 13 9
33 21 17 26 17 16 21 26 18 20 12 6 15 8 16 16 12 19 22 22 24 29 30 25 30 29 27 26 27 27 23 20 15 15 13 12 9 7 6 8 10 11 15 14
12 16 22 21 13 8 22 17 20 25 18 13 8 12 14 22 19 21 24 28 28 28 26 26 30 30 30 28 25 25 26 24 17 18 19 22 19 15 10 12 10 12 13 14
4 19 20 16 11 10 6 22 24 21 15 14 9 5 10 22 21 19 22 29 27 29 28 27 29 29 29 27 28 26 25 24 24 19 22 23 18 15 13 14 17 14 11 14
21 12 6 4 6 3 2 18 15 8 8 10 11 8 13 24 24 20 13 22 28 25 26 23 20 24 24 25 25 27 26 26 26 24 24 27 24 21 18 18 18 18 13 14
25 14 3 17 10 9 21 22 14 8 9 9 11 14 7 18 23 27 24 25 24 28 26 24 25 24 23 27 26 25 27 28 27 27 27 26 25 25 24 22 19 18 17 12
9 15 8 11 7 9 20 8 11 12 13 9 8 10 8 16 17 20 31 30 28 26 24 24 25 24 25 27 27 27 26 26 26 27 27 24 22 21 20 21 18 19 18 18
7 8 2 14 12 14 11 7 6 8 2 7 5 3 3 6 7 16 26 14 17 25 27 30 27 29 27 26 27 28 26 23 22 25 25 24 22 23 22 20 20 19 18 17
4 13 3 8 0 5 6 3 4 2 11 7 3 9 8 12 9 7 14 23 22 21 20 20 22 20 22 19 18 19 20 22 20 21 24 24 24 24 21 20 22 20 20 20
11 2 7 12 11 8 5 8 2 1 4 5 7 3 17 11 5 12 6 6 1 11 12 14 18 18 21 20 21 22 22 22 21 21 22 24 24 23 22 22 23 24 22 23
7 3 10 10 1 6 6 6 11 10 3 2 5 2 15 15 22 22 21 21 23 24 22 23 22 15 3 12 20 22 19 21 21 21 22 24 23 23 24 24 24 24 24 23
9 3 10 4 7 8 8 14 10 2 3 7 6 6 11 18 23 23 22 21 21 23 25 23 25 23 23 22 16 6 13 19 19 19 20 20 21 23 25 24 22 22 23 23
1 1 1 9 4 8 14 14 9 10 5 6 5 17 5 16 19 21 22 20 20 22 23 23 24 22 21 20 19 20 18 10 16 23 22 24 24 23 23 21 21 21 23 22
3 7 5 8 9 6 13 8 13 14 8 9 16 15 4 8 12 14 15 18 21 23 24 23 22 22 21 22 23 22 19 19 16 12 17 20 19 21 23 23 23 20 20 20
11 2 5 4 13 6 10 4 1 4 5 9 19 8 6 5 9 13 15 16 18 19 19 19 19 21 22 23 23 23 22 21 20 17 13 12 12 16 19 22 25 26 27 24
6 6 3 3 10 2 8 4 5 2 7 2 11 3 6 6 10 10 10 13 15 16 17 18 17 17 18 19 20 21 22 22 21 17 16 14 8 11 14 14 21 25 25 22
4 4 2 2 2 9 1 3 5 10 8 9 11 8 5 7 12 8 11 13 14 15 16 16 16 17 17 16 17 20 19 19 19 19 14 11 12 16 11 13 17 18 20 26
2 2 2 2 2 1 6 1 2 3 2 6 4 5 6 10 13 6 13 14 13 15 16 16 17 17 17 16 18 18 18 17 17 17 15 13 12 14 13 14 15 12 14 16
2 3 2 4 4 9 2 3 1 1 6 4 5 4 8 8 7 5 17 17 16 16 16 18 18 19 18 19 18 18 17 17 16 17 18 17 13 13 15 14 14 11 12 13
4 2 3 3 2 4 3 3 3 7 5 3 3 3 4 1 3 14 15 14 13 13 17 18 17 17 18 20 19 19 18 18 20 21 19 14 11 12 13 12 10 10 12 13
2 2 5 1 4 8 6 5 6 4 4 3 3 4 6 8 12 14 15 16 17 17 18 15 16 19 20 18 17 20 20 20 21 22 20 13 12 11 10 12 11 12 13 14
5 5 2 7 3 2 4 2 5 6 4 3 3 5 6 10 13 15 18 17 17 17 17 17 17 19 19 18 17 19 20 22 22 22 20 15 12 11 11 13 13 13 14 15
5 5 5 2 5 7 4 8 8 7 5 2 3 4 6 9 11 14 16 16 17 16 17 17 18 19 20 17 16 17 22 22 21 21 19 16 14 13 12 11 12 14 15 15
4 11 5 6 5 1 5 10 13 8 5 2 4 5 7 9 13 12 15 16 17 19 18 18 19 19 20 20 20 20 19 20 21 20 18 16 13 13 12 12 12 13 14 18
12 10 12 8 12 7 6 16 11 7 4 2 5 8 7 8 14 15 16 16 18 20 19 20 19 20 21 22 21 22 19 19 19 21 17 14 13 13 13 13 11 10 10 14
Wind_Direction
170 159 173 177 166 147 142 146 141 139 158 145 179 162 176 160 154 153 161 167 184 185 187 184 181 169 155 163 161 167 167 167 166 175 179 172 174 164 137 167 158 153 158 148
146 163 159 140 129 143 148 156 146 138 144 134 173 202 189 170 172 171 172 175 182 181 193 185 183 179 174 168 172 168 171 166 171 181 185 171 168 170 158 164 161 163 166 154
150 152 143 144 149 143 175 168 165 149 143 68 151 204 199 197 172 179 178 175 181 185 191 187 182 182 178 178 175 176 183 184 184 181 164 139 119 112 147 171 156 157 159 161
111 148 139 143 142 131 172 167 148 144 147 165 169 202 200 189 200 178 171 178 185 188 193 187 180 178 180 183 179 177 178 192 193 182 171 169 177 176 186 180 176 173 173 172
144 159 145 141 144 152 154 140 152 145 140 137 177 147 201 183 207 200 181 183 183 185 180 179 179 178 182 178 179 176 177 188 201 190 173 175 182 187 183 188 179 184 189 181
158 166 95 100 105 44 118 114 113 87 111 187 187 166 200 191 191 206 188 193 183 180 183 184 175 173 175 177 174 177 180 191 194 186 179 181 183 186 190 196 188 189 191 189
135 149 28 123 105 353 129 132 137 132 176 202 198 203 220 189 193 198 202 193 188 182 181 180 183 181 177 177 179 180 186 193 191 187 183 184 184 187 192 191 191 192 189 187
119 147 195 156 179 162 150 143 146 166 172 168 162 213 195 207 209 208 199 190 187 185 182 181 189 189 186 187 189 189 188 192 191 187 183 185 185 190 193 191 189 192 190 188
114 119 263 178 163 170 191 189 154 109 116 140 180 236 254 107 153 208 211 196 189 189 189 195 195 193 190 191 193 193 195 193 187 185 183 188 189 191 196 191 188 190 187 187
19 129 268 144 68 254 186 155 179 68 166 175 186 173 171 214 183 134 185 201 199 191 199 207 205 196 196 192 192 194 197 197 193 183 187 193 197 199 196 185 189 192 189 189
13 90 168 160 200 175 139 199 257 198 150 142 128 156 343 341 358 207 140 58 136 202 192 191 196 191 188 188 191 194 196 198 195 192 193 199 202 201 198 190 191 193 188 190
7 34 132 195 168 17 226 176 193 193 178 99 121 106 5 22 40 65 58 54 48 46 40 42 41 45 54 198 195 197 198 201 202 201 202 204 203 202 202 200 195 192 193 190
340 56 117 98 282 288 232 226 201 124 126 198 145 159 19 22 39 39 46 40 42 41 32 32 32 29 22 15 14 332 217 205 202 203 206 209 208 206 209 206 198 195 195 194
323 355 29 166 204 166 209 217 210 198 227 190 163 145 35 24 28 23 28 30 34 37 32 23 23 17 9 6 4 360 358 322 217 205 209 210 209 206 209 206 202 195 196 195
59 35 356 292 289 270 194 192 200 217 211 199 162 139 100 43 31 27 25 27 28 25 24 18 10 5 1 358 353 350 345 345 335 277 223 215 214 213 205 201 200 200 199 200
358 75 348 297 350 207 159 61 105 222 210 125 144 130 19 33 39 36 30 22 25 16 12 9 3 359 356 349 343 337 334 333 330 319 282 225 218 216 213 206 206 206 205 200
28 3 7 299 338 91 148 27 338 83 49 73 188 113 18 359 18 36 33 25 18 6 360 356 355 348 343 337 332 334 330 327 328 316 301 297 264 241 246 229 207 206 206 198
43 357 340 278 324 197 107 43 50 112 68 61 83 62 30 340 308 96 42 22 7 356 348 344 340 335 334 331 334 331 328 325 326 320 295 293 299 294 277 240 225 201 192 195
150 43 0 207 172 304 214 291 141 161 188 61 92 36 358 346 124 104 30 12 355 343 336 331 328 328 326 333 333 330 326 330 330 330 305 287 287 280 273 254 225 202 190 183
116 87 46 312 221 211 152 170 233 174 270 98 83 46 360 348 192 167 359 349 339 334 329 329 329 326 330 334 334 334 334 329 330 326 313 293 272 261 258 246 225 205 195 188
345 12 199 238 258 275 180 162 183 173 191 121 77 52 12 4 287 309 324 325 326 322 326 327 325 326 325 329 333 335 333 332 328 321 315 282 267 259 251 236 217 203 183 169
237 186 212 208 214 245 158 136 194 133 118 101 64 31 342 316 311 315 321 325 329 330 329 328 327 323 323 326 332 328 326 325 324 319 312 283 261 253 244 229 212 191 180 178
270 211 244 214 229 144 156 139 124 108 110 47 14 14 351 325 323 324 323 326 326 326 324 328 325 320 318 324 326 321 321 323 322 317 310 289 268 247 228 220 208 191 183 182
232 179 232 295 203 192 167 138 143 136 121 99 45 353 342 323 321 317 319 320 320 321 322 323 322 317 315 316 316 316 315 316 316 313 308 295 274 255 234 220 206 200 192 185
208 157 203 260 258 286 198 179 161 144 128 110 351 334 338 326 317 317 315 316 316 316 319 319 317 313 310 317 316 314 312 313 311 308 302 288 272 257 240 229 218 213 210 195
191 190 185 231 189 173 192 172 154 155 163 37 336 331 334 324 312 319 314 314 314 312 316 316 312 313 310 310 310 310 311 310 308 305 299 280 263 249 234 227 224 226 218 209